TimeCDT,TemperatureF,Dew PointF,Humidity,Sea Level PressureIn,VisibilityMPH,Wind Direction,Wind SpeedMPH,Gust SpeedMPH,PrecipitationIn,Events,Conditions,WindDirDegrees,DateUTC
12:53 AM,63.0,51.1,65,29.99,10.0,Calm,Calm,-,N/A,,Clear,0,2011-10-15 05:53:00
1:53 AM,62.1,51.1,67,29.99,10.0,Calm,Calm,-,N/A,,Clear,0,2011-10-15 06:53:00
2:53 AM,61.0,50.0,67,30.00,10.0,Calm,Calm,-,N/A,,Clear,0,2011-10-15 07:53:00
3:53 AM,60.8,50.0,68,30.03,10.0,South,4.6,-,N/A,,Clear,180,2011-10-15 08:53:00
4:53 AM,59.0,46.9,64,30.02,10.0,South,5.8,-,N/A,,Clear,180,2011-10-15 09:53:00
5:53 AM,57.9,48.0,70,30.04,10.0,South,3.5,-,N/A,,Clear,170,2011-10-15 10:53:00
6:53 AM,57.2,48.2,72,30.06,10.0,Calm,Calm,-,N/A,,Clear,0,2011-10-15 11:53:00
7:53 AM,57.2,50.0,77,30.07,10.0,Calm,Calm,-,N/A,,Clear,0,2011-10-15 12:53:00
8:53 AM,64.9,52.0,63,30.09,10.0,Calm,Calm,-,N/A,,Clear,0,2011-10-15 13:53:00
9:53 AM,71.1,54.0,55,30.10,10.0,WSW,4.6,-,N/A,,Clear,240,2011-10-15 14:53:00
10:53 AM,75.0,55.0,50,30.11,10.0,WSW,4.6,-,N/A,,Clear,250,2011-10-15 15:53:00
11:53 AM,79.0,55.0,44,30.11,10.0,WNW,3.5,-,N/A,,Clear,300,2011-10-15 16:53:00
12:53 PM,84.0,51.1,32,30.09,10.0,Calm,Calm,-,N/A,,Clear,0,2011-10-15 17:53:00
1:53 PM,84.9,48.0,28,30.06,10.0,Calm,Calm,-,N/A,,Clear,0,2011-10-15 18:53:00
2:53 PM,86.0,48.9,28,30.04,10.0,ESE,4.6,17.3,N/A,,Clear,110,2011-10-15 19:53:00
3:53 PM,87.1,48.0,26,30.03,10.0,Variable,5.8,-,N/A,,Clear,0,2011-10-15 20:53:00
5:53 PM,86.0,46.0,25,30.01,10.0,SSE,6.9,-,N/A,,Clear,150,2011-10-15 22:53:00
7:53 PM,73.0,54.0,51,30.03,10.0,Calm,Calm,-,N/A,,Clear,0,2011-10-16 00:53:00
8:53 PM,71.1,50.0,47,30.04,10.0,Calm,Calm,-,N/A,,Clear,0,2011-10-16 01:53:00
9:53 PM,68.0,54.0,61,30.05,10.0,South,3.5,-,N/A,,Clear,170,2011-10-16 02:53:00
10:53 PM,70.0,52.0,53,30.06,10.0,Calm,Calm,-,N/A,,Clear,0,2011-10-16 03:53:00
11:53 PM,66.2,51.8,60,30.08,10.0,Calm,Calm,-,N/A,,Clear,0,2011-10-16 04:53:00